DW2871 Weather Reports


time (UTC)temp
C
wind
direction
speed
KPH
gust
KPH
rain 1hr
cm
rain 24hr
cm
rain mn
cm
humidity
%
barometer
mb
20260510000021 -67 188 0.0 0.0 0.00 0.00 0.00 1039.4
20260509234543 -67 187 0.0 0.0 0.00 0.00 0.00 1039.2
20260509233041 -67 188 0.0 0.0 0.00 0.00 0.00 1039.2
20260509231531 -67 188 0.0 0.0 0.00 0.00 0.00 1039.3
20260509230028 -67 188 0.0 0.0 0.00 0.00 0.00 1039.2
20260509224523 -67 187 0.0 0.0 0.00 0.00 0.00 1039.1
20260509223020 -67 187 0.0 0.0 0.00 0.00 0.00 1039.0
20260509221511 -67 188 0.0 0.0 0.00 0.00 0.00 1038.9
20260509220008 -67 188 0.0 0.0 0.00 0.00 0.00 1038.7
20260509214501 -67 187 0.0 0.0 0.00 0.00 0.00 1038.6
20260509213059 -67 188 0.0 0.0 0.00 0.00 0.00 1038.3
20260509211557 -67 187 0.0 0.0 0.00 0.00 0.00 1038.1
20260509210054 -67 188 0.0 0.0 0.00 0.00 0.00 1038.0
20260509204542 -67 187 0.0 0.0 0.00 0.00 0.00 1037.9
20260509203038 -67 187 0.0 0.0 0.00 0.00 0.00 1037.8
20260509201505 -17 188 0.0 0.0 0.00 0.00 0.00 1037.7
20260509200059 -17 187 0.0 0.0 0.00 0.00 0.00 1037.6
20260509194527 -17 187 0.0 0.0 0.00 0.00 0.00 1037.5
20260509193021 -17 187 0.0 0.0 0.00 0.00 0.00 1037.4
20260509191549 -67 187 0.0 0.0 0.00 0.00 0.00 1037.1
20260509190048 -67 188 0.0 0.0 0.00 0.00 0.00 1037.0
20260509184537 -17 188 0.0 0.0 0.00 0.00 0.00 1036.9
20260509183030 -17 188 0.0 0.0 0.00 0.00 0.00 1036.8
20260509181527 -17 187 0.0 0.0 0.00 0.00 0.00 1036.7
20260509180024 -17 187 0.0 0.0 0.00 0.00 0.00 1036.6
20260509174514 -17 188 0.0 0.0 0.00 0.00 0.00 1036.5
20260509173032 -67 188 0.0 0.0 0.00 0.00 0.00 1036.4
20260509171516 -67 187 0.0 0.0 0.00 0.00 0.00 1036.5
20260509170001 -67 188 0.0 0.0 0.00 0.00 0.00 1036.7
20260509164559 -67 188 0.0 0.0 0.00 0.00 0.00 1036.7
20260509163051 -17 188 0.0 0.0 0.00 0.00 0.00 1036.6
20260509161544 -67 188 0.0 0.0 0.00 0.00 0.00 1036.8
20260509160045 -67 188 0.0 0.0 0.00 0.00 0.00 1036.9
20260509154506 -17 187 0.0 0.0 0.00 0.00 0.00 1036.9
20260509153003 -17 188 0.0 0.0 0.00 0.00 0.00 1036.9
20260509151526 -17 188 0.0 0.0 0.00 0.00 0.00 1036.9
20260509150023 -17 188 0.0 0.0 0.00 0.00 0.00 1036.9
20260509144515 -17 188 0.0 0.0 0.00 0.00 0.00 1036.9
20260509143013 -17 188 0.0 0.0 0.00 0.00 0.00 1036.9
20260509141507 -67 185 0.0 0.0 0.00 0.00 0.00 1036.9
20260509140003 -67 185 0.0 0.0 0.00 0.00 0.00 1036.9
20260509134559 -67 185 0.0 0.0 0.00 0.00 0.00 1036.9
20260509133051 -67 186 0.0 0.0 0.00 0.00 0.00 1036.9
20260509131558 -67 185 0.0 0.0 0.00 0.00 0.00 1036.9
20260509130105 -67 186 0.0 0.0 0.00 0.00 0.00 1036.9
20260509124541 -67 185 0.0 0.0 0.00 0.00 0.00 1036.9
20260509123051 -67 183 0.0 0.0 0.00 0.00 0.00 1037.0
20260509121525 -67 184 0.0 0.0 0.00 0.00 0.00 1037.0
20260509120028 -67 184 0.0 0.0 0.00 0.00 0.00 1036.8
20260509114519 -67 183 0.0 0.0 0.00 0.00 0.00 1036.9
20260509113010 -67 183 0.0 0.0 0.00 0.00 0.00 1036.8
20260509111505 -67 184 0.0 0.0 0.00 0.00 0.00 1036.6
20260509110106 -67 184 0.0 0.0 0.00 0.00 0.00 1036.6
20260509104557 -67 184 0.0 0.0 0.00 0.00 0.00 1036.4
20260509103022 -67 184 0.0 0.0 0.00 0.00 0.00 1036.4
20260509101531 -67 184 0.0 0.0 0.00 0.00 0.00 1036.5
20260509100044 -67 184 0.0 0.0 0.00 0.00 0.00 1036.3
20260509094540 -67 180 0.0 0.0 0.00 0.00 0.00 1036.3
20260509093032 -17 194 0.0 0.0 0.00 0.00 0.00 1036.2
20260509091531 -17 182 0.0 0.0 0.00 0.00 0.00 1036.1
20260509090023 -17 202 0.0 0.0 0.00 0.00 0.00 1036.1
20260509084521 -17 203 0.0 0.0 0.00 0.00 0.00 1036.1
20260509083010 -67 198 0.0 0.0 0.00 0.00 0.00 1036.1
20260509081507 -67 198 0.0 0.0 0.00 0.00 0.00 1036.0
20260509080003 -17 198 0.0 0.0 0.00 0.00 0.00 1035.9
20260509074558 -17 198 0.0 0.0 0.00 0.00 0.00 1035.6
20260509073050 -67 198 0.0 0.0 0.00 0.00 0.00 1035.4
20260509071550 -17 200 0.0 0.0 0.00 0.00 0.00 1035.4
20260509070046 -67 202 0.0 0.0 0.00 0.00 0.00 1035.3
20260509064551 -67 205 0.0 0.0 0.00 0.00 0.00 1035.3
20260509063035 -67 205 0.0 0.0 0.00 0.00 0.00 1035.2
20260509061529 -67 198 0.0 0.0 0.00 0.00 0.00 1035.2
20260509060021 -67 203 0.0 0.0 0.00 0.00 0.00 1035.1
20260509054516 -67 246 0.0 0.0 0.00 0.00 0.00 1035.1
20260509053013 -67 187 0.0 0.0 0.00 0.00 0.00 1035.1
20260509051507 -67 186 0.0 0.0 0.00 0.00 0.00 1035.1
20260509044612 -67 185 0.0 0.0 0.00 0.00 0.00 1035.0
20260509043024 -67 184 0.0 0.0 0.00 0.00 0.00 1034.9
20260509041522 -67 184 0.0 0.0 0.00 0.00 0.00 1034.9
20260509040010 -67 183 0.0 0.0 0.00 0.00 0.00 1034.9
20260509034505 -67 250 0.0 0.0 0.00 0.00 0.00 1034.9
20260509033001 -67 259 0.0 0.0 0.00 0.00 0.00 1035.1
20260509031609 -67 180 0.0 0.0 0.00 0.00 0.00 1035.2
20260509030053 -67 180 0.0 0.0 0.00 0.00 0.00 1035.3
20260509024519 -67 179 0.0 0.0 0.00 0.00 0.00 1035.3
20260509023015 -67 240 0.0 0.0 0.00 0.00 0.00 1035.5
20260509021540 -67 239 0.0 0.0 0.00 0.00 0.00 1035.6
20260509020043 -67 145 0.0 0.0 0.00 0.00 0.00 1035.8
20260509014538 -67 139 0.0 0.0 0.00 0.00 0.00 1036.0
20260509013025 -67 130 0.0 0.0 0.00 0.00 0.00 1036.1
20260509011520 -67 129 0.0 0.0 0.00 0.00 0.00 1036.1
20260509010016 -67 219 0.0 0.0 0.00 0.00 0.00 1036.1
20260509004509 -67 223 0.0 0.0 0.00 0.00 0.00 1036.1
20260509003004 -67 186 0.0 0.0 0.00 0.00 0.00 1036.1
20260509001600 -67 183 0.0 0.0 0.00 0.00 0.00 1036.0